Mobridge, SD

12:39 AM CST on January 21, 2017 (GMT -0600)
Mobridge

Weather History for KMBG - March, 2013

Change the Weather History Date:

Saturday, March 30, 2013

  Actual Average Record
Temperature  
Mean Temperature 42 °F 38 °F  
Max Temperature 60 °F 50 °F 77 °F (1943)
Min Temperature 24 °F 27 °F 2 °F (1969)
Degree Days  
Heating Degree Days 23 27  
Month to date heating degree days 1169 1001  
Since 1 July heating degree days 6985 6976  
Cooling Degree Days 0 0  
Month to date cooling degree days 0 0  
Year to date cooling degree days 0 0  
Moisture  
Dew Point 30 °F    
Average Humidity 63    
Maximum Humidity 96    
Minimum Humidity 30    
Precipitation  
Precipitation T in 0.05 in 0.98 in (2007)
Month to date precipitation 0.38 0.86  
Year to date precipitation 1.34 1.59  
Snow  
Snow 0.00 in - - ()
Month to date snowfall 4.7  
Since 1 July snowfall 29.0  
Snow Depth 0.00 in    
Sea Level Pressure  
Sea Level Pressure 30.00 in    
Wind  
Wind Speed 8 mph (NNW)    
Max Wind Speed 26 mph    
Max Gust Speed 37 mph    
Visibility 7 miles    
Events Rain    
T = Trace of Precipitation, MM = Missing Value Source: NWS Daily Summary

Daily Weather History Graph

Daily Weather History Graph

Search for Another Location

Airport or City:

Trip Planner

Search our weather history database for the weather conditions in past years. The results will help you decide how hot, cold, wet, or windy it might be!

Date:

Astronomy

Mar. 30, 2013 Rise Set
Actual Time 7:25 AM CDT 8:07 PM CDT
Civil Twilight 6:55 AM CDT 8:37 PM CDT
Nautical Twilight 6:19 AM CDT 9:13 PM CDT
Astronomical Twilight 5:42 AM CDT 9:50 PM CDT
Moon No Moon Rise 9:10 AM CDT (3/30)
Length of Visible Light 13h 42m
Length of Day
12h 42m
Waning Gibbous, 86% of the Moon is Illuminated
Mar 30
Waning Gibbous
Apr 2
Last Quarter
Apr 10
New
Apr 18
First Quarter
Apr 25
Full

Hourly Weather History & Observations

Time (CDT) Temp. Windchill Dew Point Humidity Pressure Visibility Wind Dir Wind Speed Gust Speed Precip Events Conditions
12:52 AM 30.0 °F - 28.9 °F 96% 29.98 in 4.0 mi Calm Calm - N/A   Clear
1:52 AM 30.9 °F 24.3 °F 28.9 °F 92% 29.99 in 4.0 mi NW 6.9 mph - N/A   Clear
2:52 AM 32.0 °F 24.2 °F 28.9 °F 88% 29.99 in 6.0 mi NNW 9.2 mph - N/A   Clear
3:52 AM 30.9 °F 25.2 °F 28.9 °F 92% 29.99 in 6.0 mi North 5.8 mph - N/A   Clear
4:52 AM 28.9 °F 21.1 °F 26.1 °F 89% 29.99 in 6.0 mi North 8.1 mph - N/A   Clear
5:52 AM 27.0 °F - 24.1 °F 89% 30.01 in 5.0 mi Calm Calm - N/A   Clear
6:52 AM 24.1 °F - 21.9 °F 91% 30.03 in 3.0 mi Calm Calm - N/A   Clear
7:27 AM 24.8 °F - 23.0 °F 93% 29.99 in 2.0 mi Calm Calm - N/A   Clear
7:52 AM 27.0 °F 21.6 °F 24.1 °F 89% 30.04 in 2.5 mi North 4.6 mph - N/A   Clear
8:52 AM 34.0 °F - 32.0 °F 92% 30.03 in 2.5 mi Calm Calm - N/A   Clear
9:03 AM 35.6 °F - 32.0 °F 87% 29.99 in 3.0 mi Calm Calm - N/A   Clear
9:52 AM 39.0 °F 34.0 °F 34.0 °F 82% 30.02 in 5.0 mi WNW 6.9 mph - N/A   Haze
10:52 AM 43.0 °F 37.2 °F 35.1 °F 74% 30.02 in 7.0 mi WNW 10.4 mph - N/A   Clear
11:52 AM 50.0 °F - 37.0 °F 61% 30.02 in 10.0 mi WNW 11.5 mph - N/A   Clear
12:52 PM 52.0 °F - 35.1 °F 53% 30.01 in 10.0 mi NNW 8.1 mph 18.4 mph N/A   Clear
1:52 PM 55.0 °F - 35.1 °F 47% 30.00 in 10.0 mi North 11.5 mph - N/A   Clear
2:52 PM 57.9 °F - 34.0 °F 41% 29.99 in 10.0 mi North 12.7 mph - N/A   Clear
3:52 PM 57.9 °F - 30.9 °F 36% 29.97 in 10.0 mi North 12.7 mph 17.3 mph N/A   Clear
4:52 PM 57.9 °F - 27.0 °F 31% 29.96 in 10.0 mi NNW 12.7 mph - N/A   Clear
5:52 PM 57.9 °F - 26.1 °F 30% 29.95 in 10.0 mi North 11.5 mph - N/A   Clear
6:52 PM 55.0 °F - 25.0 °F 31% 29.96 in 10.0 mi NNW 11.5 mph - N/A   Clear
7:52 PM 48.9 °F - 26.1 °F 41% 29.96 in 10.0 mi NNW 6.9 mph - N/A   Scattered Clouds
8:52 PM 44.1 °F 35.2 °F 32.0 °F 63% 30.01 in 10.0 mi North 23.0 mph 36.8 mph N/A   Overcast
9:52 PM 42.1 °F 37.7 °F 30.9 °F 65% 30.04 in 10.0 mi North 6.9 mph - 0.00 in Rain Light Rain
10:52 PM 35.1 °F 29.3 °F 30.0 °F 82% 30.05 in 10.0 mi NW 6.9 mph - 0.00 in   Clear
11:52 PM 36.0 °F 30.3 °F 30.0 °F 79% 30.04 in 10.0 mi WNW 6.9 mph - N/A   Clear